Location: Rounton
(54.4000°N, 1.3500°W)
Time: 13:20:29
(UTC+00:00)

Transit 4A - Pass Details

Date: 01 December 2021
Orbit: 864 x 981 km, 66.8° (Epoch: 18 January)

Event Time Altitude Azimuth Distance (km) Brightness Sun altitude
Rises 02:39:01 0° 313° (NW) 3,568 - -45.2°
Reaches altitude 10° 02:41:40 10° 320° (NW) 2,642 - -44.8°
Maximum altitude 02:47:30 42° 31° (NNE) 1,327 - -44.1°
Exits shadow 02:51:37 19° 93° (E) 2,103 10.1 -43.5°
Drops below altitude 10° 02:53:28 10° 102° (ESE) 2,704 10.7 -43.3°
Sets 02:56:13 0° 109° (ESE) 3,661 11.5 -42.9°
